Tracking 19199 objects as of 25-Jun-2018
HD Live streaming from Space Station
objects crossing your sky now

FENGYUN 1C DEB

Track FENGYUN 1C DEB now!
10-day predictions


NORAD ID: 32459
Int'l Code: 1999-025DBX
Perigee: 616.4 km
Apogee: 964.1 km
Inclination: 98.6 °
Period: 100.5 minutes
Semi major axis: 7161 km
RCS: 0.0076 m2 (small)
Launch date: May 10, 1999
Source: People's Republic of China (PRC)
Launch site: Taiyaun Space Center, China (TSC)

Note: This is SATELLITE DEBRIS
aabbcc
Your satellite tracking list
Your tracking list is empty




NASA's NSSDC Master Catalog

Two Line Element Set (TLE):
1 32459U 99025DBX 18174.90803306 +.00000127 +00000-0 +47646-4 0  9999
2 32459 098.5743 214.2537 0242793 040.6629 321.2406 14.32575482554103
Source of the keplerian elements: AFSPC